Weather History for KDKK - April, 2013

Change the Weather History Date:

Sunday, April 7, 2013

  Actual Average Record
Temperature  
Mean Temperature 52 °F -  
Max Temperature 66 °F 50 °F 77 °F (1929)
Min Temperature 36 °F 33 °F 11 °F (1982)
Degree Days  
Heating Degree Days 14    
Growing Degree Days 2 (Base 50)    
Moisture  
Dew Point 32 °F    
Average Humidity 48    
Maximum Humidity 89    
Minimum Humidity 23    
Precipitation  
Precipitation 0.00 in - - ()
Sea Level Pressure  
Sea Level Pressure 29.87 in    
Wind  
Wind Speed 19 mph (SW)    
Max Wind Speed 26 mph    
Max Gust Speed 41 mph    
Visibility 10 miles    
Events      
Averages and records for this station are not official NWS values.
T = Trace of Precipitation, MM = Missing Value Source: NWS Daily Summary

Daily Weather History Graph

Daily Weather History Graph

Search for Another Location

Airport or City:

Trip Planner

Search our weather history database for the weather conditions in past years. The results will help you decide how hot, cold, wet, or windy it might be!

Date:

Astronomy

Apr. 07, 2013 Rise Set
Actual Time 6:48 AM EDT 7:50 PM EDT
Civil Twilight 6:20 AM EDT 8:18 PM EDT
Nautical Twilight 5:45 AM EDT 8:53 PM EDT
Astronomical Twilight 5:10 AM EDT 9:29 PM EDT
Moon 5:08 AM EDT (4/7) 5:17 PM EDT (4/7)
Length of Visible Light 13h 58m
Length of Day
13h 01m
Waning Crescent, 8% of the Moon is Illuminated
Apr 7
Waning Crescent
Apr 10
New
Apr 18
First Quarter
Apr 25
Full
May 2
Last Quarter

Hourly Weather History & Observations

Time (EDT) Temp. Windchill Dew Point Humidity Pressure Visibility Wind Dir Wind Speed Gust Speed Precip Events Conditions
12:53 AM 52.0 °F - 15.1 °F 23% 29.93 in 10.0 mi South 18.4 mph 33.4 mph N/A   Overcast
1:53 AM 51.1 °F - 16.0 °F 25% 29.89 in 10.0 mi South 18.4 mph 28.8 mph N/A   Clear
2:53 AM 52.0 °F - 18.0 °F 26% 29.86 in 10.0 mi South 19.6 mph 32.2 mph N/A   Clear
3:53 AM 53.1 °F - 19.9 °F 27% 29.84 in 10.0 mi South 20.7 mph 27.6 mph N/A   Clear
4:53 AM 53.1 °F - 21.9 °F 30% 29.81 in 10.0 mi South 21.9 mph 41.4 mph N/A   Clear
5:53 AM 53.1 °F - 23.0 °F 31% 29.80 in 10.0 mi South 20.7 mph 36.8 mph N/A   Clear
6:53 AM 54.0 °F - 26.1 °F 34% 29.78 in 10.0 mi South 18.4 mph 29.9 mph N/A   Clear
7:53 AM 55.9 °F - 28.0 °F 34% 29.77 in 10.0 mi South 26.5 mph 40.3 mph N/A   Mostly Cloudy
8:53 AM 60.1 °F - 30.0 °F 32% 29.76 in 10.0 mi South 26.5 mph 36.8 mph N/A   Mostly Cloudy
9:53 AM 60.1 °F - 32.0 °F 35% 29.75 in 10.0 mi SSW 24.2 mph 35.7 mph N/A   Overcast
10:53 AM 64.0 °F - 35.1 °F 34% 29.75 in 10.0 mi SSW 20.7 mph 35.7 mph N/A   Mostly Cloudy
11:53 AM 66.0 °F - 37.0 °F 34% 29.75 in 10.0 mi SW 20.7 mph 39.1 mph N/A   Partly Cloudy
12:53 PM 61.0 °F - 39.9 °F 46% 29.78 in 10.0 mi WSW 26.5 mph 39.1 mph N/A   Partly Cloudy
1:53 PM 57.9 °F - 42.1 °F 56% 29.80 in 10.0 mi SW 24.2 mph 39.1 mph N/A   Clear
2:53 PM 57.9 °F - 42.1 °F 56% 29.81 in 10.0 mi WSW 21.9 mph 36.8 mph N/A   Clear
3:53 PM 57.0 °F - 42.1 °F 57% 29.84 in 10.0 mi WSW 18.4 mph 28.8 mph N/A   Clear
4:53 PM 55.0 °F - 39.9 °F 57% 29.88 in 10.0 mi WSW 16.1 mph 26.5 mph N/A   Clear
5:53 PM 55.0 °F - 39.0 °F 55% 29.91 in 10.0 mi WSW 18.4 mph 25.3 mph N/A   Clear
6:53 PM 53.1 °F - 37.0 °F 55% 29.94 in 10.0 mi West 16.1 mph 21.9 mph N/A   Clear
7:53 PM 46.9 °F - 37.0 °F 68% 29.98 in 10.0 mi West 8.1 mph - N/A   Partly Cloudy
8:53 PM 45.0 °F 41.8 °F 36.0 °F 71% 30.01 in 10.0 mi West 5.8 mph - N/A   Clear
9:53 PM 39.9 °F 35.8 °F 35.1 °F 83% 30.04 in 9.0 mi SW 5.8 mph - N/A   Clear
10:53 PM 37.0 °F 34.5 °F 33.1 °F 86% 30.05 in 10.0 mi WSW 3.5 mph - N/A   Clear
11:53 PM 36.0 °F - 33.1 °F 89% 30.06 in 8.0 mi Calm Calm - N/A   Partly Cloudy